Cotulla, TX

10:23 AM CDT on September 17, 2019 (GMT -0500)
Cotulla-La Salle County

Weather History for KCOT - August, 2019

Change the Weather History Date:

Thursday, August 22, 2019

  Actual Average Record
Temperature  
Mean Temperature 90 °F -  
Max Temperature 102 °F 95 °F 105 °F (2014)
Min Temperature 78 °F 73 °F 73 °F (2003)
Cooling Degree Days 25    
Growing Degree Days 40 (Base 50)    
Moisture  
Dew Point 69 °F    
Average Humidity 58    
Maximum Humidity 90    
Minimum Humidity 24    
Precipitation  
Precipitation 0.00 in - - ()
Sea Level Pressure  
Sea Level Pressure 29.86 in    
Wind  
Wind Speed 9 mph ()    
Max Wind Speed 21 mph    
Max Gust Speed 30 mph    
Visibility 10.0 miles    
Events      
Averages and records for this station are not official NWS values.
T = Trace of Precipitation, MM = Missing Value Source: Averaged Metar Reports

Daily Weather History Graph

Daily Weather History Graph

Search for Another Location

Airport or City:

Astronomy

Aug. 22, 2019 Rise Set
Actual Time 7:09 AM CDT 8:09 PM CDT
Civil Twilight 6:45 AM CDT 8:33 PM CDT
Nautical Twilight 6:16 AM CDT 9:02 PM CDT
Astronomical Twilight 5:47 AM CDT 9:31 PM CDT
Moon No Moon Rise 1:14 PM CDT (8/22)
Length of Visible Light 13h 47m
Length of Day
12h 59m
Waning Gibbous, 59% of the Moon is Illuminated
Aug 22
Waning Gibbous
Aug 23
Last Quarter
Aug 30
New
Sep 5
First Quarter
Sep 13
Full

Hourly Weather History & Observations

Time (CDT) Temp. Heat Index Dew Point Humidity Pressure Visibility Wind Dir Wind Speed Gust Speed Precip Events Conditions
12:53 AM 82.9 °F 88.0 °F 72.0 °F 69% 29.92 in 10.0 mi SSE 13.8 mph - N/A   Clear
1:53 AM 81.0 °F 85.8 °F 73.0 °F 77% 29.92 in 10.0 mi SSE 10.4 mph - N/A   Clear
2:53 AM 80.1 °F 84.2 °F 73.0 °F 79% 29.91 in 10.0 mi SSE 6.9 mph - N/A   Clear
3:53 AM 79.0 °F - 73.9 °F 84% 29.90 in 10.0 mi SE 6.9 mph - N/A   Clear
4:53 AM 79.0 °F - 73.9 °F 84% 29.90 in 10.0 mi ESE 5.8 mph - N/A   Scattered Clouds
5:53 AM 78.1 °F - 75.0 °F 90% 29.90 in 10.0 mi ESE 6.9 mph - N/A   Clear
6:53 AM 78.1 °F - 75.0 °F 90% 29.90 in 10.0 mi ESE 8.1 mph - N/A   Clear
7:53 AM 78.1 °F - 75.0 °F 90% 29.92 in 10.0 mi East 6.9 mph - N/A   Clear
8:53 AM 82.0 °F 88.6 °F 75.0 °F 79% 29.92 in 10.0 mi SE 6.9 mph - N/A   Partly Cloudy
9:53 AM 86.0 °F 93.0 °F 73.0 °F 65% 29.92 in 10.0 mi SE 10.4 mph - N/A   Mostly Cloudy
10:24 AM 87.1 °F 92.8 °F 71.1 °F 59% 29.94 in 10.0 mi South 8.1 mph 17.3 mph N/A   Scattered Clouds
10:53 AM 88.0 °F 92.9 °F 70.0 °F 55% 29.91 in 10.0 mi South 8.1 mph - N/A   Scattered Clouds
11:53 AM 91.9 °F 95.9 °F 68.0 °F 45% 29.90 in 10.0 mi SE 11.5 mph - N/A   Partly Cloudy
12:53 PM 95.0 °F 97.9 °F 66.0 °F 38% 29.88 in 10.0 mi Variable 3.5 mph - N/A   Scattered Clouds
1:53 PM 96.1 °F 98.3 °F 64.0 °F 35% 29.85 in 10.0 mi SE 13.8 mph 20.7 mph N/A   Mostly Cloudy
2:53 PM 99.0 °F 100.5 °F 63.0 °F 30% 29.81 in 10.0 mi SE 9.2 mph 19.6 mph N/A   Partly Cloudy
3:53 PM 100.0 °F 101.8 °F 62.1 °F 29% 29.79 in 10.0 mi North - - N/A   Scattered Clouds
4:53 PM 102.9 °F 103.6 °F 60.1 °F 24% 29.75 in 10.0 mi ESE 15.0 mph - N/A   Mostly Cloudy
5:53 PM 99.0 °F 100.5 °F 62.1 °F 30% 29.75 in 10.0 mi SSE 12.7 mph 20.7 mph N/A   Partly Cloudy
6:53 PM 100.0 °F 101.8 °F 62.1 °F 29% 29.75 in 10.0 mi SE 13.8 mph 20.7 mph N/A   Clear
7:53 PM 93.0 °F 97.4 °F 68.0 °F 44% 29.77 in 10.0 mi SSE 10.4 mph - N/A   Clear
8:53 PM 91.0 °F 95.2 °F 68.0 °F 47% 29.80 in 10.0 mi SE 17.3 mph 20.7 mph N/A   Clear
9:53 PM 90.0 °F 93.6 °F 68.0 °F 48% 29.84 in 10.0 mi SE 20.7 mph 29.9 mph N/A   Clear
10:53 PM 87.1 °F 92.8 °F 71.1 °F 59% 29.85 in 10.0 mi SE 17.3 mph - N/A   Clear
11:53 PM 84.9 °F 90.1 °F 71.1 °F 63% 29.86 in 10.0 mi SE 15.0 mph - N/A   Clear